Find Starlink 11190

NORAD ID: 60911 Int'l Des: 2024-154 Owner: SPXS Country: US Constellation: starlink operational
LEOCIRCULAR

Live Position

Loading 3D Globe...

About Starlink 11190

Description loading...

Upcoming Passes

Passes for default location (London). Set your location on the main map for personalized predictions.

Altitude History

Loading altitude history...

Two-Line Element Set

1 60911U 24154J 26125.41656016 .00000930 00000-0 12537-4 0 9992
2 60911 53.1599 211.6479 0001316 49.3097 310.8035 15.69710894 97415
Epoch: May 5, 2026 • Age: 9 hours

Current Status

Altitude 368.0 km
Velocity 7.69 km/s
Sub-Earth Point -27.94°S, 37.65°E
Launch Date Aug 31, 2024
Age 1.6 years
Type internet

Technical Details

Classification Payload
Mass 960.00 kg
Dry Mass 910.00 kg
Total Mass 960.00 kg
Length 0.30 m
Diameter 4.10 m
Span 29.00 m
Shape Box + pan
Manufacturer SPXS
Bus Type Starlink V2MD
Phase Status In Orbit
Owner/State SPXS/US

Most Searched